DW7779 Weather Reports


time (UTC)temp
F
wind
direction
speed
knots
gust
knots
rain 1hr
in
rain 24hr
in
rain mn
in
humidity
%
barometer
mb
20260505010019 60 1.7 5.2 0.00 0.00 0.00 70 1019.5
20260505004517 59 1.7 4.3 0.00 0.00 0.00 71 1019.3
20260505003015 57 1.7 5.2 0.00 0.00 0.00 73 1019.3
20260505001509 56 1.7 7.8 0.00 0.00 0.00 76 1019.3
20260505000024 57 2.6 7.8 0.00 0.00 0.00 76 1019.3
20260504234507 56 0.9 4.3 0.00 0.00 0.00 78 1019.0
20260504233003 56 3.5 7.0 0.00 0.00 0.00 79 1018.8
20260504231605 55 4.3 8.7 0.00 0.00 0.00 81 1018.7
20260504230100 55 0.9 6.1 0.00 0.00 0.00 84 1018.5
20260504224558 54 1.7 5.2 0.00 0.00 0.00 86 1018.4
20260504223053 53 1.7 7.0 0.00 0.00 0.00 88 1018.2
20260504221558 52 1.7 5.2 0.00 0.00 0.00 90 1018.1
20260504220049 52 0.9 3.5 0.00 0.00 0.00 92 1017.8
20260504214546 51 2.6 6.1 0.00 0.00 0.00 92 1017.1
20260504213043 51 2.6 5.2 0.00 0.00 0.00 92 1017.1
20260504211548 51 1.7 4.3 0.00 0.00 0.00 92 1016.8
20260504210059 52 1.7 4.3 0.00 0.00 0.00 92 1016.6
20260504204543 52 0.9 3.5 0.00 0.00 0.00 92 1016.4
20260504203035 52 0.9 5.2 0.00 0.00 0.00 92 1016.2
20260504201530 52 1.7 4.3 0.00 0.00 0.00 92 1016.0
20260504200029 53 0.9 3.5 0.00 0.00 0.00 91 1015.6
20260504194541 53 0.0 2.6 0.00 0.00 0.00 91 1015.6
20260504193026 53 0.9 5.2 0.00 0.00 0.00 91 1015.4
20260504191526 53 0.0 3.5 0.00 0.00 0.00 91 1015.2
20260504190021 53 0.9 5.2 0.00 0.00 0.00 91 1014.9
20260504184520 53 0.9 5.2 0.00 0.00 0.00 91 1014.8
20260504183016 53 2.6 7.8 0.00 0.00 0.00 91 1014.5
20260504181515 53 0.9 4.3 0.00 0.00 0.00 92 1014.4
20260504180018 53 1.7 6.1 0.00 0.00 0.00 91 1014.2
20260504174510 53 2.6 4.3 0.00 0.00 0.00 90 1014.2
20260504173014 54 3.5 9.6 0.00 0.00 0.00 90 1014.0
20260504171506 53 2.6 9.6 0.00 0.00 0.00 90 1013.9
20260504081513 60 3.5 8.7 0.00 0.00 0.00 77 1008.2
20260504050004 64 5.2 18.2 0.00 0.00 0.00 65 1006.6
20260504044504 64 7.8 14.8 0.00 0.00 0.00 64 1006.6
20260504043001 64 7.0 17.4 0.00 0.00 0.00 64 1006.6
20260504041600 64 6.1 14.8 0.00 0.00 0.00 64 1006.5
20260504040105 65 3.5 13.0 0.00 0.00 0.00 63 1006.5
20260504034555 65 7.0 13.9 0.00 0.00 0.00 65 1006.6
20260504033052 65 7.0 14.8 0.00 0.00 0.00 64 1006.7
20260504031617 64 9.6 18.2 0.00 0.00 0.00 63 1006.9
20260504030048 64 7.8 16.5 0.00 0.00 0.00 64 1007.2
20260504024545 63 6.1 11.3 0.00 0.01 0.00 66 1007.4
20260504023041 61 7.8 15.6 0.00 0.01 0.00 67 1007.5
20260504021539 61 4.3 15.6 0.00 0.01 0.00 69 1007.8
20260504020040 61 4.3 17.4 0.00 0.01 0.00 69 1008.0
20260504014537 62 7.0 15.6 0.00 0.24 0.00 68 1008.2
20260504013037 61 7.0 14.8 0.00 0.24 0.00 67 1008.1
20260504011535 62 7.0 14.8 0.00 0.24 0.00 67 1008.2